STARLINK-1610 (46163 NORAD) Tracking and Keplerian Element Data

This shows tracking and keplerian element data for the satellite.

Feedback or suggestion? Click here.




ElementValue
Catalog46163
NameSTARLINK-1610
Epoch Orbit182
Epoch Day335.91670139
Epoch Year2020
RAAN288.4357
Inclination52.9996
Eccentricity0.0002394
Argument of Perigee19.7932
Mean Anonmoly345.1946
Mean Motion15.62762447
Decay Rate-0.00034713
L11 46163U 20057AY 20335.91670139 -.00034713 00000-0 -37468-3 0 9994
L22 46163 52.9996 288.4357 0002394 19.7932 345.1946 15.62762447 1825

Live tracking and technical data element details for STARLINK-1610 (NORAD 46163). STARLINK-1610 can be tracked NOW for your location showing map with azimuth and elevation plus other details from your city location.

Track the satellite on the map from your city or location and see movement details for azimuth, elevation, latitude, longitude, range, height, and movement on the map or in text.







IsCatalogInMostPopularTable: catalog: 46163, numindb: 16
Update: records affected: 1



GetName: 46163 STARLINK-1610

Hit Count: updated at: Wed, 02 Dec 2020 06:21:35 GMT